Date String (YYYY-MM-DD hh:mm:ss) UTC,Instrument flags,Ambient pressure (hPa),Sample flow (lpm),Bypass flow (lpm),Sample temperature (°C),Ambient temperature (°C),ASC tube jacket temperature (°C),LED temperature (°C),Box temperature (°C),Sample RH (%),Span deviation,Mass concentration (μg/m³),Mass concentration (μg/m³),Mass concentration (μg/m³)
DateTimeUTC,F1_M11,P_M11,Q1_M11,Q2_M11,T1_M11,T2_M11,T3_M11,T4_M11,T5_M11,U1_M11,ZSPAN_M11,X0_M11,X2_M11,X1_M11
2021-12-04 08:00:00,,0828.1,5.01,0.00,25.1,24.3,00.0,34.2,26.8,14.9,0000.0,0010.94,0003.35,0001.87
2021-12-04 08:01:00,,0828.1,5.00,0.00,25.1,24.3,00.0,34.1,26.8,14.8,0000.0,0010.31,0003.34,0001.88
2021-12-04 08:02:00,,0828.3,4.99,0.00,25.1,24.2,00.0,34.1,26.7,14.9,0000.0,0009.99,0003.32,0001.89
2021-12-04 08:03:00,,0828.1,5.01,0.00,25.0,24.2,00.0,34.1,26.8,14.8,0000.0,0009.79,0003.29,0001.91
2021-12-04 08:04:00,,0828.1,4.99,0.00,25.0,24.2,00.0,34.1,26.8,14.8,0000.0,0008.98,0003.24,0001.91
2021-12-04 08:05:00,,0828.1,4.99,0.00,25.0,24.2,00.0,34.1,26.8,14.9,0000.0,0009.29,0003.19,0001.91
2021-12-04 08:06:00,,0828.1,5.00,0.00,25.1,24.2,00.0,34.1,26.8,15.0,0000.0,0009.84,0003.18,0001.92
2021-12-04 08:07:00,,0828.1,5.00,0.00,25.1,24.2,00.0,34.1,26.8,14.9,0000.0,0010.64,0003.19,0001.94
2021-12-04 08:08:00,,0828.1,5.01,0.00,25.1,24.3,00.0,34.1,26.8,14.9,0000.0,0010.79,0003.21,0001.95
2021-12-04 08:09:00,,0828.1,5.00,0.00,25.1,24.2,00.0,34.1,26.8,14.9,0000.0,0011.85,0003.23,0001.95
2021-12-04 08:10:00,,0828.1,5.00,0.00,25.1,24.2,00.0,34.1,26.8,14.9,0000.0,0011.68,0003.24,0001.96
2021-12-04 08:11:00,,0828.1,5.00,0.00,25.0,24.2,00.0,34.1,26.8,14.9,0000.0,0011.09,0003.27,0001.98
2021-12-04 08:12:00,,0828.0,5.01,0.00,25.0,24.3,00.0,34.1,26.8,14.9,0000.0,0011.33,0003.31,0001.97
2021-12-04 08:13:00,,0828.0,5.01,0.00,25.0,24.2,00.0,34.1,26.8,14.7,0000.0,0011.57,0003.35,0001.98
2021-12-04 08:14:00,,0828.0,4.99,0.00,25.0,24.2,00.0,34.1,26.8,14.6,0000.0,0011.49,0003.36,0001.98
2021-12-04 08:15:00,,0828.0,5.01,0.00,25.0,24.2,00.0,34.1,26.8,14.5,0000.0,0011.46,0003.40,0002.01
2021-12-04 08:16:00,,0828.0,4.98,0.00,25.0,24.2,00.0,34.1,26.8,14.6,0000.0,0011.35,0003.41,0002.01
2021-12-04 08:17:00,,0828.0,5.02,0.00,25.0,24.2,00.0,34.1,26.8,14.5,0000.0,0010.90,0003.41,0002.02
2021-12-04 08:18:00,,0828.1,4.99,0.00,25.0,24.2,00.0,34.1,26.8,14.3,0000.0,0009.84,0003.41,0002.02
2021-12-04 08:19:00,,0828.0,5.00,0.00,25.0,24.2,00.0,34.1,26.8,14.1,0000.0,0009.74,0003.41,0002.02
2021-12-04 08:20:00,,0828.0,5.00,0.00,25.0,24.2,00.0,34.0,26.8,14.0,0000.0,0009.12,0003.40,0002.03
2021-12-04 08:21:00,,0827.9,5.00,0.00,25.0,24.2,00.0,34.0,26.8,14.3,0000.0,0009.56,0003.39,0002.03
2021-12-04 08:22:00,,0828.0,5.00,0.00,25.0,24.2,00.0,34.0,26.8,14.3,0000.0,0009.74,0003.36,0002.02
2021-12-04 08:23:00,,0828.0,4.99,0.00,25.0,24.2,00.0,34.0,26.7,14.4,0000.0,0009.50,0003.31,0002.02
2021-12-04 08:24:00,,0828.0,4.99,0.00,25.0,24.1,00.0,34.0,26.7,14.4,0000.0,0009.80,0003.30,0002.02
2021-12-04 08:25:00,,0827.9,5.00,0.00,25.0,24.1,00.0,34.0,26.7,14.4,0000.0,0010.20,0003.27,0002.01
2021-12-04 08:26:00,,0827.9,5.01,0.00,25.0,24.1,00.0,34.0,26.7,14.3,0000.0,0010.22,0003.20,0001.99
2021-12-04 08:27:00,,0827.9,4.99,0.00,24.9,24.1,00.0,34.0,26.7,14.3,0000.0,0010.19,0003.18,0001.98
2021-12-04 08:28:00,,0828.0,5.00,0.00,24.9,24.1,00.0,34.0,26.7,14.4,0000.0,0010.75,0003.17,0001.98
2021-12-04 08:29:00,,0828.0,4.99,0.00,24.9,24.1,00.0,34.0,26.7,14.5,0000.0,0010.88,0003.17,0001.99
2021-12-04 08:30:00,,0828.0,5.01,0.00,24.9,24.1,00.0,34.0,26.7,14.6,0000.0,0011.13,0003.18,0001.98
2021-12-04 08:31:00,,0828.0,4.99,0.00,24.9,24.1,00.0,34.0,26.7,14.8,0000.0,0011.37,0003.22,0001.97
2021-12-04 08:32:00,,0828.0,4.99,0.00,24.9,24.1,00.0,34.0,26.7,14.8,0000.0,0010.49,0003.24,0001.97
2021-12-04 08:33:00,,0828.0,5.01,0.00,24.9,24.1,00.0,34.0,26.7,14.8,0000.0,0010.59,0003.26,0001.97
2021-12-04 08:34:00,,0828.0,4.99,0.00,24.9,24.1,00.0,34.0,26.6,14.7,0000.0,0010.76,0003.28,0001.98
2021-12-04 08:35:00,,0828.1,5.01,0.00,24.9,24.1,00.0,34.0,26.6,14.7,0000.0,0010.54,0003.28,0001.99
2021-12-04 08:36:00,,0828.0,4.99,0.00,24.9,24.1,00.0,33.9,26.6,14.4,0000.0,0010.11,0003.28,0001.98
2021-12-04 08:37:00,,0828.0,5.00,0.00,24.9,24.1,00.0,33.9,26.6,14.1,0000.0,0010.61,0003.30,0001.98
2021-12-04 08:38:00,,0828.0,5.01,0.00,24.9,24.1,00.0,33.9,26.6,13.9,0000.0,0010.66,0003.32,0001.96
2021-12-04 08:39:00,,0828.0,5.00,0.00,24.9,24.1,00.0,33.9,26.7,14.1,0000.0,0010.00,0003.31,0001.95
2021-12-04 08:40:00,,0828.0,5.00,0.00,24.9,24.1,00.0,33.9,26.7,14.3,0000.0,0009.89,0003.31,0001.93
2021-12-04 08:41:00,,0828.1,5.00,0.00,24.9,24.1,00.0,33.9,26.7,14.3,0000.0,0009.72,0003.28,0001.92
2021-12-04 08:42:00,,0828.1,5.01,0.00,24.9,24.1,00.0,33.9,26.7,14.2,0000.0,0009.37,0003.25,0001.92
2021-12-04 08:43:00,,0828.1,4.99,0.00,24.9,24.1,00.0,33.9,26.6,13.8,0000.0,0009.67,0003.24,0001.91
2021-12-04 08:44:00,,0828.1,4.99,0.00,24.9,24.1,00.0,33.9,26.7,13.7,0000.0,0009.88,0003.23,0001.91
2021-12-04 08:45:00,,0828.1,5.00,0.00,24.9,24.1,00.0,33.9,26.7,13.8,0000.0,0009.56,0003.22,0001.90
2021-12-04 08:46:00,,0828.0,4.99,0.00,24.9,24.1,00.0,33.9,26.7,13.8,0000.0,0009.39,0003.18,0001.88
2021-12-04 08:47:00,,0828.0,5.01,0.00,24.9,24.1,00.0,33.9,26.6,13.4,0000.0,0009.43,0003.16,0001.86
2021-12-04 08:48:00,,0828.0,5.00,0.00,24.9,24.1,00.0,33.9,26.6,13.4,0000.0,0008.75,0003.12,0001.84
2021-12-04 08:49:00,,0828.0,5.00,0.00,24.9,24.1,00.0,33.9,26.6,13.7,0000.0,0008.51,0003.11,0001.83
2021-12-04 08:50:00,,0828.0,5.00,0.00,24.9,24.1,00.0,33.9,26.6,14.1,0000.0,0008.43,0003.12,0001.84
2021-12-04 08:51:00,,0828.0,5.01,0.00,24.9,24.1,00.0,33.9,26.7,14.2,0000.0,0008.86,0003.11,0001.83
2021-12-04 08:52:00,,0827.9,5.00,0.00,24.9,24.1,00.0,33.9,26.7,14.1,0000.0,0009.29,0003.12,0001.85
2021-12-04 08:53:00,,0828.0,4.99,0.00,24.9,24.1,00.0,33.9,26.7,13.8,0000.0,0009.63,0003.09,0001.87
2021-12-04 08:54:00,,0828.0,5.01,0.00,24.9,24.1,00.0,33.9,26.7,13.7,0000.0,0009.95,0003.11,0001.90
2021-12-04 08:55:00,,0828.0,4.99,0.00,24.9,24.1,00.0,33.9,26.7,13.7,0000.0,0009.45,0003.10,0001.93
2021-12-04 08:56:00,,0828.0,4.99,0.00,24.9,24.1,00.0,33.9,26.7,13.7,0000.0,0009.47,0003.12,0001.96
2021-12-04 08:57:00,,0828.0,5.00,0.00,24.9,24.1,00.0,33.9,26.7,13.8,0000.0,0009.43,0003.13,0001.97
2021-12-04 08:58:00,,0828.1,5.01,0.00,24.9,24.1,00.0,33.9,26.7,13.9,0000.0,0009.33,0003.15,0001.99
2021-12-04 08:59:00,,0828.0,4.99,0.00,24.9,24.1,00.0,33.9,26.7,14.0,0000.0,0009.58,0003.22,0002.00
